CAPE
1 40 434 401 143 543 810 955 1196 1642 1772 1670 1947 1383 1255 1464 1501 1607 1515 1427 1247 997 805 825 698 552 623 551 419 166 26 2 0
0 0 0 18 0 3 290 520 772 1036 1742 1951 1552 1182 1189 1203 1311 1275 1168 1165 1283 1323 922 671 602 564 546 610 195 91 126 6 0
0 0 0 0 0 0 0 48 193 466 1310 1645 1202 1159 1370 1212 1125 856 1015 890 935 1115 1150 781 622 683 571 543 159 120 225 25 0
0 0 0 0 0 0 0 0 0 18 256 533 719 683 935 860 818 437 738 1077 740 926 924 949 860 723 627 697 324 195 144 43 0
0 0 0 0 0 0 0 0 0 0 0 0 0 0 280 487 481 210 327 784 1029 991 1128 934 991 839 816 825 550 277 99 100 45
0 0 0 0 0 0 0 0 0 0 0 0 0 0 68 111 98 12 15 357 477 493 559 687 804 967 1030 996 750 319 125 64 88
0 0 0 0 0 0 0 0 0 0 0 0 0 0 0 0 0 0 0 0 23 59 95 199 287 416 441 884 1008 758 198 85 120
0 0 0 0 0 0 0 0 0 0 0 0 0 0 0 0 0 0 0 0 0 0 0 0 0 2 34 202 297 887 499 185 223
0 0 0 0 0 0 0 0 0 0 0 0 0 0 0 0 0 0 0 0 0 0 0 0 0 0 0 0 46 287 425 642 331
0 0 0 0 0 0 0 0 0 0 0 0 0 0 0 0 0 0 0 0 0 0 0 0 0 0 0 0 0 1 0 235 609
0 0 0 0 0 0 0 0 0 0 0 0 0 0 0 0 0 0 0 0 0 0 0 0 0 0 0 0 0 0 0 0 24
0 0 0 0 0 0 0 0 0 0 0 0 0 0 0 0 0 0 0 0 0 0 0 0 0 0 0 0 0 0 0 0 0
0 0 0 0 0 0 0 0 0 0 0 0 0 0 0 0 0 0 0 0 0 0 0 0 0 0 0 0 0 0 0 0 0
0 0 0 0 0 0 0 0 0 0 0 0 0 0 0 0 0 0 0 0 0 0 0 0 0 0 0 0 0 0 0 0 0
0 0 0 0 0 0 0 0 0 0 0 0 0 0 0 0 0 0 0 0 0 0 0 0 0 0 0 0 0 0 0 0 0
0 0 0 0 0 0 0 0 0 0 0 0 0 0 0 0 0 0 0 0 0 0 0 0 0 0 0 0 0 0 0 0 0
0 0 0 0 0 0 0 0 0 0 0 0 0 0 0 0 0 0 0 0 0 0 0 0 0 0 0 0 0 0 0 0 0
0 0 0 0 0 0 0 0 0 0 0 0 0 0 0 0 0 0 0 0 0 0 0 0 0 0 0 0 0 0 0 0 0
0 0 0 0 0 0 0 0 0 0 0 0 0 0 0 0 0 0 0 0 0 0 0 0 0 0 0 0 0 0 0 0 0
0 0 0 0 0 0 0 0 0 0 0 0 0 0 0 0 0 0 0 0 0 0 0 0 0 0 0 0 0 0 0 0 0
CIN
-10 -390 -158 -196 -379 -165 -73 -29 -6 -0 -0 -0 -0 -13 -29 -34 -3 -5 -0 -0 -0 -0 -6 -2 -6 -6 -2 -2 -1 -16 -67 -0 -0
-0 -0 -0 -343 -0 -131 -288 -172 -82 -16 -0 -0 -1 -26 -30 -4 -4 -1 -5 -0 -0 -0 -0 -8 -7 -7 -4 -1 -23 -55 -29 -35 -0
-0 -0 -0 -0 -0 -0 -0 -435 -347 -191 -3 -0 -2 -18 -25 -0 -4 -46 -4 -6 -1 -0 -0 -2 -7 -3 -4 -2 -67 -58 -6 -167 -0
-0 -0 -0 -0 -0 -0 -0 -0 -0 -290 -307 -140 -46 -51 -23 -11 -13 -96 -34 -5 -19 -4 -1 -1 -0 -2 -4 -1 -22 -66 -69 -160 -0
-0 -0 -0 -0 -0 -0 -0 -0 -0 -0 -0 -0 -0 -0 -215 -67 -73 -270 -172 -34 -12 -4 -0 -0 -0 -0 -0 -0 -1 -26 -153 -113 -166
-0 -0 -0 -0 -0 -0 -0 -0 -0 -0 -0 -0 -0 -0 -335 -302 -334 -356 -285 -171 -97 -69 -53 -28 -6 -0 -0 -0 -0 -37 -158 -223 -139
-0 -0 -0 -0 -0 -0 -0 -0 -0 -0 -0 -0 -0 -0 -0 -0 -0 -0 -0 -0 -289 -403 -338 -217 -138 -65 -48 -0 -0 -0 -118 -214 -136
-0 -0 -0 -0 -0 -0 -0 -0 -0 -0 -0 -0 -0 -0 -0 -0 -0 -0 -0 -0 -0 -0 -0 -0 -0 -44 -406 -173 -103 -0 -7 -116 -71
-0 -0 -0 -0 -0 -0 -0 -0 -0 -0 -0 -0 -0 -0 -0 -0 -0 -0 -0 -0 -0 -0 -0 -0 -0 -0 -0 -0 -298 -95 -28 -3 -39
-0 -0 -0 -0 -0 -0 -0 -0 -0 -0 -0 -0 -0 -0 -0 -0 -0 -0 -0 -0 -0 -0 -0 -0 -0 -0 -0 -0 -0 -0 -0 -102 -2
-0 -0 -0 -0 -0 -0 -0 -0 -0 -0 -0 -0 -0 -0 -0 -0 -0 -0 -0 -0 -0 -0 -0 -0 -0 -0 -0 -0 -0 -0 -0 -0 -83
-0 -0 -0 -0 -0 -0 -0 -0 -0 -0 -0 -0 -0 -0 -0 -0 -0 -0 -0 -0 -0 -0 -0 -0 -0 -0 -0 -0 -0 -0 -0 -0 -0
-0 -0 -0 -0 -0 -0 -0 -0 -0 -0 -0 -0 -0 -0 -0 -0 -0 -0 -0 -0 -0 -0 -0 -0 -0 -0 -0 -0 -0 -0 -0 -0 -0
-0 -0 -0 -0 -0 -0 -0 -0 -0 -0 -0 -0 -0 -0 -0 -0 -0 -0 -0 -0 -0 -0 -0 -0 -0 -0 -0 -0 -0 -0 -0 -0 -0
-0 -0 -0 -0 -0 -0 -0 -0 -0 -0 -0 -0 -0 -0 -0 -0 -0 -0 -0 -0 -0 -0 -0 -0 -0 -0 -0 -0 -0 -0 -0 -0 -0
-0 -0 -0 -0 -0 -0 -0 -0 -0 -0 -0 -0 -0 -0 -0 -0 -0 -0 -0 -0 -0 -0 -0 -0 -0 -0 -0 -0 -0 -0 -0 -0 -0
-0 -0 -0 -0 -0 -0 -0 -0 -0 -0 -0 -0 -0 -0 -0 -0 -0 -0 -0 -0 -0 -0 -0 -0 -0 -0 -0 -0 -0 -0 -0 -0 -0
-0 -0 -0 -0 -0 -0 -0 -0 -0 -0 -0 -0 -0 -0 -0 -0 -0 -0 -0 -0 -0 -0 -0 -0 -0 -0 -0 -0 -0 -0 -0 -0 -0
-0 -0 -0 -0 -0 -0 -0 -0 -0 -0 -0 -0 -0 -0 -0 -0 -0 -0 -0 -0 -0 -0 -0 -0 -0 -0 -0 -0 -0 -0 -0 -0 -0
-0 -0 -0 -0 -0 -0 -0 -0 -0 -0 -0 -0 -0 -0 -0 -0 -0 -0 -0 -0 -0 -0 -0 -0 -0 -0 -0 -0 -0 -0 -0 -0 -0
Wind_Speed
10 11 12 13 13 13 12 13 12 12 9 7 9 5 6 11 6 8 11 10 10 7 6 5 4 4 4 3 4 4 2 4 3
10 10 10 11 12 12 12 12 12 12 11 8 9 6 8 7 7 7 8 9 10 10 5 4 2 2 2 1 1 2 2 3 3
8 9 9 9 10 11 12 12 13 11 14 11 9 7 10 9 7 9 7 8 8 9 8 3 2 2 1 2 2 1 2 2 3
8 8 8 9 10 10 11 11 12 12 11 11 9 8 8 7 5 7 6 8 5 7 7 6 3 1 2 4 3 3 2 4 3
6 9 7 8 8 9 9 9 10 10 11 9 7 4 4 4 3 7 7 12 15 13 8 5 5 4 2 5 5 4 2 4 5
6 9 7 7 8 8 8 6 5 4 8 8 5 7 2 1 5 8 11 12 12 14 15 16 14 13 9 5 6 5 3 4 5
9 8 7 7 7 6 5 3 2 6 2 3 2 3 2 2 4 7 10 11 12 13 12 13 14 13 12 15 5 7 5 4 5
5 5 5 5 4 2 3 1 4 4 3 3 3 3 3 2 5 7 10 11 11 11 11 12 11 11 12 13 12 13 8 7 8
5 4 4 2 1 2 1 2 2 3 3 4 3 3 3 2 3 8 9 10 10 10 11 11 11 11 11 11 12 14 14 7 9
5 4 4 3 2 1 2 1 2 2 3 4 3 3 3 3 2 6 8 9 9 10 10 11 11 10 10 10 11 12 11 13 10
6 5 4 4 3 2 2 2 1 1 0 2 2 2 1 1 1 1 6 7 7 9 10 11 10 10 10 10 10 11 11 11 12
7 6 5 5 4 4 2 2 1 1 1 2 1 1 2 2 1 0 2 6 8 6 8 10 9 9 9 10 10 10 11 11 11
8 6 6 5 4 4 3 3 2 2 2 3 2 3 3 4 2 2 1 2 4 4 6 6 7 7 8 9 9 9 10 10 11
9 7 6 7 5 5 5 4 4 3 3 4 4 4 3 5 5 5 4 3 1 3 5 4 6 5 8 8 9 9 10 10 11
10 7 8 8 6 6 5 6 4 3 2 5 4 4 3 4 5 6 4 4 2 4 4 4 4 4 6 9 10 10 12 12 12
11 8 9 8 7 8 7 6 6 5 4 4 5 5 5 5 5 5 5 5 4 3 5 3 3 5 8 9 7 10 13 12 12
13 11 10 10 7 8 8 6 5 5 3 3 2 3 4 5 5 5 3 5 3 5 7 6 6 5 5 6 5 10 11 12 15
14 13 11 11 9 7 8 8 7 5 5 5 4 3 3 2 4 5 5 4 5 6 6 8 7 8 7 6 7 6 9 13 14
15 15 13 12 9 10 9 8 7 6 6 4 4 3 2 2 3 2 3 6 6 7 6 6 8 8 6 8 9 11 12 14 15
16 15 15 12 9 11 11 10 10 7 5 4 5 5 4 5 4 6 5 6 6 5 6 7 7 8 7 6 9 12 12 16 18
Wind_Direction
69 57 55 60 53 49 54 50 47 45 50 76 84 62 353 315 56 55 65 52 38 52 53 73 86 74 55 71 76 58 55 116 112
76 66 60 58 56 54 55 54 51 42 33 97 80 43 350 38 39 57 49 43 36 40 62 63 55 84 55 156 110 46 71 138 130
82 76 70 63 60 56 57 59 59 54 41 82 66 38 352 72 75 51 39 26 23 37 34 46 25 283 212 211 159 95 134 166 142
86 77 73 72 65 61 57 58 61 62 59 53 52 33 7 71 58 56 40 7 15 25 32 20 14 303 239 220 193 179 153 178 181
109 121 77 74 71 68 63 65 63 65 66 62 52 360 307 70 75 75 13 33 47 49 42 30 16 355 288 244 209 213 239 213 218
116 76 89 82 75 72 68 62 62 92 89 62 13 283 43 296 49 57 13 30 42 48 43 48 49 42 25 299 223 218 228 257 208
91 101 104 97 95 91 82 64 271 262 29 82 255 46 50 32 69 64 22 34 39 43 43 47 45 40 34 31 346 232 223 239 207
165 145 165 153 216 174 178 129 33 46 33 27 61 23 22 80 92 58 31 34 36 36 37 40 38 35 34 31 23 18 232 220 214
164 170 137 183 151 117 30 73 96 107 23 41 55 52 12 0 85 83 41 39 36 34 34 30 31 29 25 25 32 30 21 305 236
164 160 174 162 179 159 132 133 127 81 44 32 30 25 39 31 50 105 81 50 43 38 32 29 26 25 25 25 28 28 15 13 358
185 173 167 171 184 171 191 147 138 171 310 89 41 4 25 51 34 59 127 106 65 42 35 29 25 22 19 17 17 18 13 6 7
178 185 175 177 185 179 178 158 193 175 238 245 288 167 288 254 163 97 349 141 131 84 40 21 17 16 16 14 8 360 353 354 359
185 184 185 174 167 184 192 192 213 238 266 266 209 249 217 239 217 168 321 24 353 129 62 9 2 359 358 358 354 353 347 340 339
188 187 182 177 181 190 200 196 238 218 223 261 264 254 255 233 223 208 195 176 301 325 351 336 310 318 335 338 336 337 338 334 329
194 189 184 178 183 198 199 206 201 243 249 277 272 258 238 250 243 252 263 255 205 257 299 314 303 249 299 320 321 325 327 325 321
194 185 184 185 188 192 201 204 210 209 229 268 242 239 241 240 225 232 257 241 247 254 260 268 293 296 310 291 292 311 320 319 317
192 186 188 186 188 193 195 201 206 226 210 268 254 251 188 214 243 218 252 271 279 276 287 288 299 298 285 282 286 287 294 309 315
195 190 189 187 190 188 193 195 216 207 183 235 277 233 229 23 212 228 229 276 276 286 309 294 291 288 287 293 276 223 303 302 306
192 192 193 189 189 191 190 195 200 228 204 189 234 247 280 265 289 219 236 273 296 300 280 291 298 294 287 297 293 273 285 297 301
189 195 192 192 190 197 191 196 199 199 223 199 182 213 235 244 250 282 282 282 272 292 306 292 289 293 295 284 289 288 304 295 291